Regional Weather Roundup
Issued by NWS

Home | Current Version | Previous Version | Graphics & Text | Print | Product List | Glossary On
Versions: 1 2 3 4 5 6 7 8 9 10 11 12 13 14 15 16 17 18 19 20 21 22 23 24 25 26 27 28 29 30 31 32 33 34 35 36 37 38 39 40 41 42 43 44 45 46 47 48 49 50
000
ASUS43 KFSD 010602
RWRSD

WEATHER ROUNDUP FOR SOUTH DAKOTA
NATIONAL WEATHER SERVICE SIOUX FALLS SD
100 AM CDT SAT OCT 01 2016

NOTE: "FAIR" INDICATES FEW OR NO CLOUDS BELOW 12,000 FEET WITH NO
SIGNIFICANT WEATHER AND/OR OBSTRUCTIONS TO VISIBILITY.


SDZ001>005-009-010-012>017-010700-
NORTHWEST AND NORTH CENTRAL SOUTH DAKOTA

CITY           SKY/WX    TMP DP  RH WIND       PRES   REMARKS
BUFFALO          N/A     57  47  69 CALM      29.95S
FAITH            N/A     59  48  67 SE16      30.01R
MOBRIDGE       PTCLDY    61  45  55 SE15      30.05R
$$

SDZ012>016-024>037-041>051-057-063-072>074-010700-
SOUTHWEST AND SOUTH CENTRAL SOUTH DAKOTA

CITY           SKY/WX    TMP DP  RH WIND       PRES   REMARKS
RAPID CTY ARPT CLEAR     55  48  77 SE7       30.03S
PIERRE         CLOUDY    60  45  57 SE16      30.05F
CUSTER         CLEAR     55  45  68 CALM      30.16S
ELLSWORTH AFB  CLEAR     58  50  75 SW6       30.02S
PHILIP         CLOUDY    61  48  62 SE8       30.02S
PINE RIDGE     MOCLDY    64  48  56 S17G23    30.07R
WINNER         FAIR      61  44  53 S14       30.10F
$$

SDZ004>011-016>023-039-040-010700-
NORTHEAST SOUTH DAKOTA

CITY           SKY/WX    TMP DP  RH WIND       PRES   REMARKS
ABERDEEN       PTCLDY    53  44  71 SE7       30.13F
WATERTOWN      PTCLDY    56  46  69 SE7       30.18S
SISSETON         N/A     47  43  86 S5        30.18S
$$

SDZ017-020-022-023-036>040-048>070-010700-
SOUTHEAST SOUTH DAKOTA

CITY           SKY/WX    TMP DP  RH WIND       PRES   REMARKS
SIOUX FALLS    PTCLDY    52  47  83 CALM      30.18S
HURON          PTCLDY    52  45  77 SE8       30.14S
CHAMBERLAIN    PTCLDY    56  49  77 SE8       30.12S
MITCHELL       PTCLDY    50  44  80 SE6       30.15S
YANKTON        PTCLDY    52  46  82 E5        30.15S
$$

ABBREVIATIONS USED IN REMARKS
   TC - TEMPERATURE IN CELSIUS
  WCI - WIND CHILL INDEX
   HX - HEAT INDEX
  VSB - VISIBILITY





USA.gov is the U.S. government's official web portal to all federal, state and local government web resources and services.